[[{"header":{"parameterUnit":"m.s-1","parameterCategory":1,"la1":30.2992,"la2":30.254,"lo1":-89.0895,"lo2":-89.0443,"dy":0.0025,"dx":0.0025,"nx":19,"ny":19,"refTime":"2026-03-08T09:00:00:Z","depth":0,"parameterNumber":2,"parameterNumberName":"U-component_of_WINDS"},"data":[0,0,0,-2.733,-2.7329,-2.7274,-2.7274,-2.7224,-2.7224,0,0,0,0,0,0,0,0,0,0,0,-2.736,-2.736,-2.733,-2.7329,-2.7274,-2.7274,-2.7225,-2.7224,0,0,0,0,0,0,0,0,0,0,0,-2.736,-2.736,-2.736,-2.7329,-2.7274,-2.7274,-2.7225,-2.7258,0,0,0,0,0,0,0,0,0,0,-2.7308,-2.735,-2.736,-2.736,-2.7328,-2.7274,-2.7274,-2.7259,-2.7256,-2.7259,0,-2.7266,0,-2.7244,-2.7222,-2.7222,0,0,0,-2.7318,-2.7353,-2.7325,-2.736,-2.7328,-2.7274,-2.7296,-2.7257,-2.7254,-2.7254,-2.7265,-2.7262,-2.7244,-2.7222,-2.7222,-2.7275,-2.7275,0,0,-2.7321,-2.7357,-2.7328,-2.7324,-2.7335,-2.7298,-2.7294,-2.7255,-2.7268,-2.7265,-2.7261,-2.7243,-2.7222,-2.7222,-2.7274,-2.7275,0,0,0,-2.7337,-2.736,-2.7333,-2.7326,-2.7315,-2.7296,-2.7292,-2.727,-2.7258,-2.726,-2.7242,-2.7222,-2.7222,-2.7273,-2.7274,-2.7346,0,0,0,-2.7338,-2.7369,-2.7335,-2.7356,-2.7316,-2.7292,-2.7309,-2.7261,-2.7255,-2.7243,-2.7222,-2.7221,-2.7272,-2.7274,-2.7342,-2.7373,0,0,0,-2.7359,-2.7371,-2.7368,-2.7359,-2.7336,-2.7292,-2.7277,-2.7259,-2.7245,-2.7222,-2.7221,-2.7271,-2.7273,-2.7338,-2.7367,-2.7396,0,0,0,-2.7391,-2.7433,-2.737,-2.741,-2.7337,-2.7337,-2.7277,-2.7275,-2.7264,-2.7222,-2.7272,-2.7274,-2.7337,-2.7364,-2.7393,-2.7426,-2.7444,0,0,-2.7464,-2.7443,-2.7463,-2.7406,-2.7426,-2.7342,-2.7372,-2.7328,-2.7293,-2.7282,-2.7283,-2.7343,-2.7367,-2.7395,-2.7533,-2.7548,0,0,0,-2.7499,-2.7514,-2.7511,-2.7503,-2.7471,-2.7445,-2.7393,-2.7376,-2.7366,-2.7295,-2.7361,-2.7374,-2.7389,-2.7403,-2.7416,-2.7426,-2.7283,-2.7282,-2.7282,-2.7653,-2.7606,-2.7637,-2.7583,-2.7576,-2.7521,-2.751,-2.7478,-2.7433,-2.7449,-2.7445,-2.7535,-2.7553,-2.7562,-2.7573,-2.746,-2.7461,-2.7461,-2.7461,-2.7755,-2.7769,-2.7707,-2.7715,-2.7664,-2.767,-2.7618,-2.7586,-2.7582,-2.7534,-2.7545,-2.7495,-2.7579,-2.7586,-2.7466,-2.7465,-2.7464,-2.7464,-2.7464,-2.785,-2.7848,-2.7828,-2.7811,-2.7803,-2.7746,-2.7746,-2.77,-2.7657,-2.7668,-2.7658,-2.7657,-2.7648,-2.7667,-2.7667,-2.7667,-2.7668,-2.7668,-2.7668,-2.7956,-2.7931,-2.7937,-2.7906,-2.7894,-2.7873,-2.7818,-2.7805,-2.7778,-2.7745,-2.7744,-2.7696,-2.7597,-2.7572,-2.7673,-2.7672,-2.7671,-2.7671,-2.767,-2.8074,-2.804,-2.805,-2.8038,-2.7997,-2.7991,-2.7933,-2.791,-2.7892,-2.7893,-2.7843,-2.7778,-2.7753,-2.7742,-2.7721,-2.7854,-2.7854,-2.7854,-2.7854,-2.8154,-2.8137,-2.8135,-2.8119,-2.8098,-2.8047,-2.8057,-2.8014,-2.7965,-2.7951,-2.7925,-2.7894,-2.7886,-2.7865,-2.7852,-2.7832,-2.799,-2.799,-2.799,-2.8223,-2.8202,-2.822,-2.8172,-2.8137,-2.8107,-2.8115,-2.8098,-2.8035,-2.7995,-2.7938,-2.7932,-2.7881,-2.7868,-2.7825,-2.7807,-2.7768,0,0]},{"header":{"parameterUnit":"m.s-1","parameterCategory":1,"la1":30.2992,"la2":30.254,"lo1":-89.0895,"lo2":-89.0443,"dy":0.0025,"dx":0.0025,"nx":19,"ny":19,"refTime":"2026-03-08T09:00:00:Z","depth":0,"parameterNumber":3,"parameterNumberName":"V-component_of_WINDS"},"data":[0,0,0,2.4713,2.4713,2.4723,2.4723,2.4736,2.4736,0,0,0,0,0,0,0,0,0,0,0,2.471,2.471,2.4713,2.4713,2.4723,2.4723,2.4736,2.4736,0,0,0,0,0,0,0,0,0,0,0,2.471,2.471,2.471,2.4713,2.4723,2.4723,2.4736,2.4728,0,0,0,0,0,0,0,0,0,0,2.4719,2.4716,2.471,2.471,2.4713,2.4723,2.4723,2.4728,2.4729,2.4732,0,2.4734,0,2.4736,2.4737,2.4737,0,0,0,2.4713,2.4715,2.4718,2.471,2.4714,2.4723,2.4718,2.4729,2.473,2.4733,2.4734,2.4735,2.4736,2.4737,2.4737,2.4757,2.4757,0,0,2.4713,2.4712,2.4718,2.4719,2.4717,2.4718,2.4719,2.4729,2.473,2.4735,2.4735,2.4736,2.4737,2.4737,2.4757,2.4757,0,0,0,2.4711,2.4711,2.4714,2.4718,2.472,2.4718,2.4719,2.473,2.4731,2.4735,2.4736,2.4737,2.4737,2.4757,2.4757,2.4762,0,0,0,2.4711,2.471,2.4714,2.4713,2.472,2.4725,2.472,2.473,2.4731,2.4736,2.4737,2.4738,2.4757,2.4757,2.4762,2.4764,0,0,0,2.471,2.471,2.4712,2.4713,2.4717,2.4725,2.4726,2.473,2.4732,2.4737,2.4738,2.4757,2.4757,2.4761,2.4764,2.4771,0,0,0,2.4708,2.4714,2.4712,2.472,2.4717,2.4728,2.4726,2.4734,2.4739,2.4737,2.4757,2.4757,2.4761,2.4763,2.4771,2.4777,2.478,0,0,2.4715,2.4715,2.472,2.4718,2.473,2.4727,2.4739,2.4743,2.4744,2.4753,2.4754,2.4762,2.4764,2.4771,2.4793,2.4795,0,0,0,2.4722,2.4726,2.4729,2.4734,2.474,2.4745,2.4748,2.4751,2.4759,2.4749,2.4766,2.4767,2.4772,2.4775,2.4776,2.4781,2.4758,2.4758,2.4758,2.473,2.4733,2.4742,2.4747,2.4753,2.4759,2.4764,2.4769,2.4767,2.4772,2.4775,2.4788,2.4792,2.4793,2.4798,2.4778,2.4778,2.4778,2.4778,2.4742,2.4748,2.4751,2.4761,2.4765,2.4773,2.4781,2.4781,2.479,2.4785,2.4789,2.4784,2.4795,2.4799,2.4778,2.4778,2.4778,2.4778,2.4778,2.4748,2.4751,2.4756,2.4767,2.4776,2.4781,2.4792,2.4794,2.4796,2.48,2.4805,2.4805,2.4806,2.4802,2.4802,2.4803,2.4803,2.4803,2.4803,2.4752,2.4757,2.4765,2.4775,2.4781,2.4789,2.4798,2.4804,2.4812,2.4813,2.4813,2.4814,2.4795,2.4791,2.4803,2.4803,2.4803,2.4803,2.4803,2.4763,2.4762,2.4775,2.4781,2.4795,2.4805,2.481,2.4823,2.4829,2.4834,2.4835,2.4821,2.482,2.4819,2.4816,2.4833,2.4833,2.4833,2.4833,2.4768,2.4769,2.4785,2.4796,2.4807,2.4814,2.4831,2.4839,2.4848,2.4852,2.485,2.4846,2.4845,2.4845,2.4843,2.484,2.4864,2.4864,2.4864,2.4776,2.4779,2.4792,2.4802,2.4814,2.4824,2.4841,2.4855,2.4864,2.4865,2.4856,2.4855,2.4848,2.4845,2.4845,2.4842,2.4836,0,0]}]]